Regional Weather Roundup
Issued by NWS

Home | Current Version | Previous Version | Text Only | Print | Product List | Glossary On
Versions: 1 2 3 4 5 6 7 8 9 10 11 12 13 14 15 16 17 18 19 20 21 22 23 24 25 26 27 28 29 30 31 32 33 34 35 36 37 38 39 40 41 42 43 44 45 46 47 48 49 50
000
ASUS43 KMKX 252321
RWRWI

WISCONSIN REGIONAL WEATHER ROUNDUP
NATIONAL WEATHER SERVICE MILWAUKEE/SULLIVAN WI
600 PM CDT TUE APR 25 2017

NOTE: "FAIR" INDICATES FEW OR NO CLOUDS BELOW 12,000 FEET WITH NO
SIGNIFICANT WEATHER AND/OR OBSTRUCTIONS TO VISIBILITY.

WIZ001-002-006>008-014>016-023>028-260000-
NORTHWEST WISCONSIN

CITY           SKY/WX    TMP DP  RH WIND       PRES   REMARKS
SUPERIOR ARPT  CLOUDY    40  39  95 N7        29.68R
ASHLAND        CLOUDY    41  37  86 NE9G24    29.68R
HAYWARD        LGT RAIN  55  40  56 NE15      29.61R
SIREN          CLOUDY    57  42  57 NE10G17   29.58S
CUMBERLAND     LGT RAIN  55  50  82 NW5       29.57F
RICE LAKE      LGT RAIN  58  51  78 CALM      29.58F
CHETEK         LGT RAIN  57  54  88 CALM      29.57F
LADYSMITH      CLOUDY    61  53  75 SW3       29.60R
EAU CLAIRE     RAIN      56  56 100 E5        29.56F FOG
MENOMONIE      DRIZZLE   55  55  99 N5        29.56S
NEW RICHMOND   LGT RAIN  55  53  94 NE5       29.56S
OSCEOLA        LGT RAIN  56  56 100 CALM      29.59R
$$

WIZ003>005-009-010-017-018-260000-
NORTH CENTRAL WISCONSIN

CITY           SKY/WX    TMP DP  RH WIND       PRES   REMARKS
MANITOWISH WTR CLOUDY    59  38  46 N8        29.58R
ARBOR VITAE    LGT RAIN  68  42  38 SW12G33   29.58R
WOODRUFF       LGT RAIN  68  42  38 SW12G33   29.58R
RHINELANDER    CLOUDY    70  44  39 SE10      29.58R
EAGLE RIVER    CLOUDY    69  37  30 S8        29.57R
LAND O LAKES   CLOUDY    71  36  28 N10       29.59R
PHILLIPS       LGT RAIN  59  51  75 CALM      29.57R
TOMAHAWK       DRIZZLE   64  42  45 S7        29.59R
MEDFORD        LGT RAIN  58  50  75 W13G18    29.59R
MERRILL        LGT RAIN  68  42  38 SW6       29.57R
$$

WIZ029-030-035-036-043>047-260000-
CENTRAL WISCONSIN

CITY           SKY/WX    TMP DP  RH WIND       PRES   REMARKS
WAUSAU         LGT RAIN  64  47  53 W7        29.56R
MOSINEE        CLOUDY    63  46  55 S9G17     29.59R
MARSHFIELD     LGT RAIN  57  52  83 W7        29.58R
STEVENS POINT  LGT RAIN  67  41  38 CALM      29.57S
WAUPACA        LGT RAIN  70  49  47 E6        29.57S
WAUTOMA          N/A     70  46  42 E5        29.56F
WISC RAPIDS    CLOUDY    62  52  69 NW6       29.57S
CAMP DOUGLAS   CLOUDY    68  50  52 NW8       29.54F
$$

WIZ011>013-019>022-031-037>040-048>050-260000-
NORTHEAST WISCONSIN

CITY           SKY/WX    TMP DP  RH WIND       PRES   REMARKS
ANTIGO         CLOUDY    65  47  51 SE9       29.59S
SHAWANO        CLOUDY    69  51  52 SE8       29.58S
OCONTO         CLOUDY    62  47  59 S10       29.61S
STURGEON BAY   CLOUDY    60  52  74 S13       29.63S
GREEN BAY      CLOUDY    66  53  63 SE10      29.60R
MANITOWOC      CLOUDY    57  49  74 S10       29.63R
APPLETON       LGT RAIN  63  52  67 E6        29.57S
CLINTONVILLE   CLOUDY    68  48  49 SE9       29.58R
OSHKOSH        MOSUNNY   67  51  56 SE13      29.57S
$$

WIZ032>034-041-042-053>061-260000-
SOUTHWEST WISCONSIN

CITY           SKY/WX    TMP DP  RH WIND       PRES   REMARKS
LA CROSSE      CLOUDY    62  54  74 N6        29.52F
SPARTA         CLOUDY    59  55  89 N9        29.55F
VIROQUA        CLOUDY    67  45  44 E6        29.53S
BOSCOBEL       CLOUDY    75  43  31 E7        29.49F
PRAIRIE DU CHI CLOUDY    72  41  32 SE6       29.48S
PLATTEVILLE    PTSUNNY   73  45  37 SE10      29.50S
$$

WIZ056-057-062-063-064-067-068-260000-
SOUTH CENTRAL WISCONSIN

CITY           SKY/WX    TMP DP  RH WIND       PRES   REMARKS
REEDSBURG      CLOUDY    71  44  38 CALM      29.52F
BARABOO/DELLS  CLOUDY    70  45  39 SE7       29.53F
LONE ROCK      CLOUDY    72  45  37 SE5       29.50F
MINERAL POINT  PTSUNNY   72  45  37 SE8       29.50F
MADISON        CLOUDY    73  46  38 SE12      29.51F
MIDDLETON      PTSUNNY   74  47  39 SE8       29.51F
WATERTOWN      PTSUNNY   70  52  52 E10       29.55S
MONROE         CLOUDY    73  45  35 SE15      29.50F
JANESVILLE     PTSUNNY   77  45  31 SE14G21   29.51F
$$

WIZ051-052-058>065-066-070>072-260000-
SOUTHEAST WISCONSIN

CITY           SKY/WX    TMP DP  RH WIND       PRES   REMARKS
MILWAUKEE      CLOUDY    64  52  64 SE15      29.58F
WAUKESHA       MOSUNNY   68  46  45 SE14      29.58F
MILWAUKEE/TIMM SUNNY     70  46  43 S13G18    29.59R
RACINE         MOSUNNY   64  50  60 SE14      29.58F
KENOSHA        MOSUNNY   67  51  56 SE14      29.56F
FOND DU LAC    MOSUNNY   69  48  47 SE13      29.58R
SHEBOYGAN      CLOUDY    60  52  74 S6        29.61R
WEST BEND      CLOUDY    66  48  52 SE9       29.60S
JUNEAU         MOSUNNY   69  51  52 E14       29.57S
$$

LSZ147-162-260000-
LAKE SUPERIOR

STATION/POSITION TIME  TEMP    WIND        PRES    WAVE
                       AIR SEA DIR/SP/G            HT/PER
                 (UTC) (F)     (DEG/KT/KT) (MB)    (FT/S)
DEVILS ISLAND    2300   40      50/ 22/ 25 1004.8R
SAXON HARBOR     2240   40      20/  8/  9 1004.1R
$$

LMZ867-665-643>646-260000-
LAKE MICHIGAN

STATION/POSITION TIME  TEMP    WIND        PRES    WAVE
                       AIR SEA DIR/SP/G            HT/PER
                 (UTC) (F)     (DEG/KT/KT) (MB)    (FT/S)
CHAMBERS ISLAND  2230   62     140/  7/ 13 1002.7F
N MID LAKE BUOY  2250   41 37   80/  6/  8 1005.8F   1/ 4
NORTHPORT PIER   2240   44     130/  8/ 16 1004.1F
KEWAUNEE LAKESHO 2254   50     180/  7/  8 1003.3R
SHEBOYGAN LAKESH 2300   51     160/  2/  3 1002.8R
PORT WASHINGTON  2230   56     180/  2/  3 1003.7R
MILWAUKEE LAKESH 2300   54     160/  2/  3   N/A
S MID LAKE BUOY  2250   49 42   70/ 10/ 10 1002.5F   1
KENOSHA   LAKESH 2300   54     120/ 19/ 20 1001.0
$$

TC  - TEMPERATURE IN CELSIUS
VSB - VISIBILITY IN STATUTE MILES
WCI - WIND CHILL INDEX
HX  - HEAT INDEX




USA.gov is the U.S. government's official web portal to all federal, state and local government web resources and services.